Powrót do katalogu

COSMOS 1275 DEB

AktywnyPO
NORAD 39939·DEBRIS·🇷🇺 Russia

Wystrzelony Jun 4, 1981 z Plesetsk Cosmodrome

Loading…

Następne Przeloty (najbliższe 24 godziny)

TLE

Starzejące sięSource: Space-Track

Epoka: Sep 8, 2026, 02:46 UTC

1 39939U 81053MZ  26251.11562150  .00000434  00000-0  40587-3 0  9995
2 39939  82.8191  29.3027 0069098 283.4134  75.9328 13.78724220616175

Śledź COSMOS 1275 DEB w czasie rzeczywistym z AllMySat

Download on the App Store